Regional Weather Roundup
Issued by NWS

Home | Current Version | Previous Version | Graphics & Text | Print | Product List | Glossary On
Versions: 1 2 3 4 5 6 7 8 9 10 11 12 13 14 15 16 17 18 19 20 21 22 23 24 25 26 27 28 29 30 31 32 33 34 35 36 37 38 39 40 41 42 43 44 45 46 47 48 49 50
000
ASUS45 KBOU 291310
RWRCO

WEATHER ROUNDUP FOR COLORADO
NATIONAL WEATHER SERVICE DENVER/BOULDER CO
700 AM MDT WED JUL 29 2015

NOTE: "FAIR" INDICATES FEW OR NO CLOUDS BELOW 12000 FEET WITH NO
SIGNIFICANT WEATHER AND/OR OBSTRUCTIONS TO VISIBILITY.

COZ001>005-013-030-031-291400-
...NORTHWEST COLORADO...

CITY           SKY/WX    TMP DP  RH WIND       PRES   REMARKS
CRAIG          CLEAR     41  32  70 CALM      30.38R
HAYDEN         CLEAR     46  30  53 SE9       30.38R
MEEKER         CLEAR     42  32  67 W3        30.38R
MOUNT WERNER   NOT AVBL
STEAMBOAT SPGS CLEAR     40  34  80 CALM      30.40R
WALDEN         CLEAR     34  30  86 E7        30.45S WCI  28
$$

COZ006>008-011-291400-
...WEST CENTRAL VALLEYS...

CITY           SKY/WX    TMP DP  RH WIND       PRES   REMARKS
GRAND JUNCTION CLEAR     58  31  35 SE6       30.23R
MONTROSE       CLEAR     54  37  52 SE8       30.32R
EAGLE          PTCLDY    46  36  66 CALM      30.42R
RIFLE          CLEAR     53  33  46 CALM      30.32R
DELTA          CLEAR     57  38  47 CALM      30.28R
NUCLA          CLEAR     55  34  44 SE9       30.34R
$$

COZ017>023-064>068-291400-
...SOUTHWEST COLORADO...

CITY           SKY/WX    TMP DP  RH WIND       PRES   REMARKS
DURANGO        PTCLDY    58  41  53 CALM      30.34R
CORTEZ         CLEAR     49  38  65 E6        30.28R
PAGOSA SPRINGS MOCLDY    58  44  60 CALM      30.42R
TELLURIDE      CLEAR     50  34  53 SE7       30.51S
WOLF CREEK PAS NOT AVBL
$$

COZ009-010-012-014-032>034-037-058>063-291400-
...CENTRAL COLORADO...

CITY           SKY/WX    TMP DP  RH WIND       PRES   REMARKS
ASPEN          CLEAR     45  36  70 S5        30.43R
BUENA VISTA    PTCLDY    47  38  69 W5        30.49S
COPPER MTN     PTCLDY    54  28  37 S7        30.70R
BERTHOUD PASS  FAIR      39  30  70 NW13      30.74S
COTTONWOOD PAS PTCLDY    52  36  54 CALM      30.59R
GUNNISON       PTCLDY    45  34  65 CALM      30.48R
KREMMLING      CLEAR     41  32  70 CALM      30.47R
LEADVILLE      CLEAR     41  36  82 CALM      30.58R
MONARCH PASS   PTCLDY    46  36  66 CALM      30.81R
SALIDA         PTCLDY    57  42  57 CALM      30.54R
SUNLIGHT       CLEAR     54  27  35 CALM      30.64R
WILKERSON PASS MOSUNNY   43  37  81 CALM      30.69R
$$

COZ069>075-291400-
...SAN LUIS VALLEY/SANGRE DE CRISTO MOUNTAINS...

CITY           SKY/WX    TMP DP  RH WIND       PRES   REMARKS
ALAMOSA        MOCLDY    57  47  69 S6        30.40R
LA VETA PASS   PTCLDY    50  41  71 MISG      30.58S
SAGUACHE       PTCLDY    54  41  62 NW9       30.44R
$$

COZ035-036-038>040-291400-
...NORTHERN COLORADO FRONT RANGE...

CITY           SKY/WX    TMP DP  RH WIND       PRES   REMARKS
DENVER INTL AP PTSUNNY   61  44  53 S3        30.32R
DMNS CITY PARK   N/A     62  47  58 SW5       30.32S
AURORA         PTSUNNY   63  47  54 S16       30.33R
FRONT RANGE AP PTSUNNY   61  45  55 S8        30.33
ERIE MUNI ARPT SUNNY     55  45  68 MISG      30.32R
BOULDER MUN AP SUNNY     57  45  62 CALM      30.31R
CENTENNIAL     MOSUNNY   62  46  55 S10       30.33S
BROOMFIELD     MOSUNNY   59  43  55 CALM      30.34R
FORT COLLINS   SUNNY     55  43  62 N6        30.33S
LONGMONT       SUNNY     61  45  54 N6        30.32S
$$

COZ041-046-047-076>085-087-088-291400-
...PIKES PEAK/PALMER DIVIDE AND SOUTHERN FOOTHILLS...

CITY           SKY/WX    TMP DP  RH WIND       PRES   REMARKS
COLO. SPRINGS  PTSUNNY   61  48  62 N5        30.39S
A. F. ACADEMY  CLOUDY    60  46  59 VRB2      30.40S
ELLICOTT       PTSUNNY  N/A N/A N/A E7        30.36S
FALCON         CLOUDY    58  48  69 W3        30.42F
FORT CARSON    CLOUDY    63  49  59 N5        30.35S
LIMON          PTSUNNY   57  50  77 NE3       30.34S
MONUMENT HILL  PTSUNNY   54  46  76 S8        30.42S
TRINIDAD       MOSUNNY   61  47  59 NW9       30.32R
$$

COZ042>045-048>051-090-091-291400-
...NORTHEAST COLORADO...

CITY           SKY/WX    TMP DP  RH WIND       PRES   REMARKS
GREELEY ARPT   MOSUNNY   57  43  58 E7        30.33R
AKRON          MOSUNNY   61  48  62 SE12      30.32S
BURLINGTON     MOSUNNY   63  53  70 E6        30.29F
WRAY           MOSUNNY   57  53  88 CALM      30.30S
STERLING       NOT AVBL
HOLYOKE        MOSUNNY   55  48  76 CALM      30.31R
FORT MORGAN    CLOUDY    60  44  57 E5        30.32R
$$

COZ086-089-092>099-291400-
...SOUTHEAST COLORADO...

CITY           SKY/WX    TMP DP  RH WIND       PRES   REMARKS
PUEBLO         PTSUNNY   67  50  54 N9        30.28R
LA JUNTA       PTSUNNY   68  56  65 NE6       30.23S
LAMAR          PTSUNNY   65  56  72 N12       30.16F
SPRINGFIELD      N/A     63  60  90 E7        30.25R
$$


USA.gov is the U.S. government's official web portal to all federal, state and local government web resources and services.